FW5669 Weather Reports


Display with metric or nautical units.
time (UTC)temp
F
wind
direction
speed
MPH
gust
MPH
rain 1hr
in
rain 24hr
in
rain mn
in
humidity
%
barometer
mb
20260901190001 65 118 1.0 6.0 0.00 0.00 0.00 59 1017.8
20260901184606 65 187 1.0 9.0 0.00 0.00 0.00 60 1017.9
20260901183002 65 108 1.0 6.0 0.00 0.00 0.00 60 1017.9
20260901181603 64 123 2.0 8.0 0.00 0.00 0.00 60 1018.0
20260901180003 63 154 1.0 8.0 0.00 0.00 0.00 63 1017.8
20260901174503 62 126 1.0 7.0 0.00 0.00 0.00 66 1017.5
20260901173002 61 130 1.0 7.0 0.00 0.00 0.00 67 1017.8
20260901171502 60 129 1.0 5.0 0.00 0.00 0.00 68 1017.6
20260901170003 60 140 1.0 5.0 0.00 0.00 0.00 71 1017.5
20260901164502 59 291 1.0 4.0 0.00 0.00 0.00 72 1017.5
20260901163003 59 173 1.0 7.0 0.00 0.00 0.00 71 1017.4
20260901161504 59 66 2.0 6.0 0.00 0.00 0.00 71 1017.1
20260901160001 58 139 1.0 7.0 0.00 0.00 0.00 74 1016.9
20260901154603 58 137 1.0 8.0 0.00 0.00 0.00 74 1016.9
20260901153001 57 61 3.0 7.0 0.00 0.00 0.00 75 1016.6
20260901151503 57 52 3.0 9.0 0.00 0.00 0.00 77 1016.3
20260901150001 56 14 2.0 5.0 0.00 0.00 0.00 79 1016.3
20260901144500 56 92 2.0 7.0 0.00 0.00 0.00 81 1015.8
20260901143002 56 47 1.0 6.0 0.00 0.00 0.00 81 1015.5
20260901141601 56 68 2.0 6.0 0.00 0.00 0.00 82 1015.4
20260901140108 55 56 3.0 9.0 0.00 0.00 0.00 82 1015.3
20260901140002 55 53 2.0 9.0 0.00 0.00 0.00 82 1015.3
20260901134701 55 114 2.0 6.0 0.00 0.00 0.00 83 1015.3
20260901133107 55 27 3.0 9.0 0.00 0.00 0.00 83 1015.1
20260901133002 55 69 3.0 9.0 0.00 0.00 0.00 83 1015.1
20260901131600 55 66 2.0 8.0 0.00 0.00 0.00 83 1014.9
20260901131501 55 60 2.0 8.0 0.00 0.00 0.00 83 1015.0
20260901130002 55 146 2.0 7.0 0.00 0.00 0.00 83 1014.8
20260901124502 55 85 1.0 7.0 0.00 0.00 0.00 83 1014.9
20260901123004 55 21 3.0 9.0 0.00 0.00 0.00 83 1015.1
20260901121503 55 52 2.0 6.0 0.00 0.00 0.00 83 1015.1
20260901120002 55 52 1.0 6.0 0.00 0.00 0.00 84 1014.7
20260901114502 55 16 1.0 5.0 0.00 0.00 0.00 84 1014.6
20260901113003 54 152 0.0 3.0 0.00 0.00 0.00 85 1014.4
20260901111603 54 102 1.0 3.0 0.00 0.00 0.00 85 1014.3
20260901110100 54 20 2.0 5.0 0.00 0.00 0.00 85 1014.4
20260901110004 54 118 2.0 5.0 0.00 0.00 0.00 85 1014.4
20260901104609 54 351 2.0 8.0 0.00 0.00 0.00 84 1014.1
20260901103102 54 21 2.0 6.0 0.00 0.00 0.00 84 1014.1
20260901101503 54 41 1.0 10.0 0.00 0.00 0.00 84 1014.0
20260901100101 54 36 2.0 6.0 0.00 0.00 0.00 84 1014.0
20260901100002 54 42 2.0 6.0 0.00 0.00 0.00 84 1014.1
20260901094503 54 38 1.0 7.0 0.00 0.00 0.00 83 1014.2
20260901093102 55 75 1.0 5.0 0.00 0.00 0.00 82 1014.2
20260901091503 55 66 0.0 7.0 0.00 0.00 0.00 82 1014.2
20260901090006 55 65 1.0 4.0 0.00 0.00 0.00 81 1014.1
20260901084501 55 64 3.0 5.0 0.00 0.00 0.00 81 1014.1
20260901083003 55 46 1.0 4.0 0.00 0.00 0.00 81 1014.2
20260901081504 55 330 3.0 8.0 0.00 0.00 0.00 81 1014.0
20260901080002 55 79 1.0 10.0 0.00 0.00 0.00 81 1014.2
20260901074502 56 46 1.0 7.0 0.00 0.00 0.00 80 1014.2
20260901073006 56 29 3.0 9.0 0.00 0.00 0.00 79 1014.3
20260901071503 57 55 0.0 5.0 0.00 0.00 0.00 78 1014.0
20260901070003 57 96 2.0 4.0 0.00 0.00 0.00 77 1013.9
20260901064504 58 100 2.0 5.0 0.00 0.00 0.00 76 1013.8
20260901063010 58 70 1.0 4.0 0.00 0.00 0.00 74 1013.7
20260901061503 59 68 1.0 5.0 0.00 0.00 0.00 74 1013.5
20260901060003 59 106 1.0 8.0 0.00 0.00 0.00 72 1013.5
20260901054502 60 73 2.0 7.0 0.00 0.00 0.00 72 1013.4
20260901053003 60 85 1.0 7.0 0.00 0.00 0.00 71 1013.5
20260901051505 61 57 1.0 6.0 0.00 0.00 0.00 71 1013.5
20260901050004 61 43 1.0 6.0 0.00 0.00 0.00 69 1013.5
20260901044505 61 44 2.0 7.0 0.00 0.00 0.00 69 1013.4
20260901043003 62 82 1.0 6.0 0.00 0.00 0.00 69 1013.3
20260901041502 63 56 1.0 6.0 0.00 0.00 0.00 68 1013.1
20260901040002 63 46 1.0 3.0 0.00 0.00 0.00 67 1013.1
20260901034502 64 52 0.0 3.0 0.00 0.00 0.00 65 1012.9
20260901033008 65 16 1.0 6.0 0.00 0.00 0.00 63 1012.7
20260901031502 66 115 0.0 4.0 0.00 0.00 0.00 61 1012.4
20260901030003 67 24 0.0 2.0 0.00 0.00 0.00 58 1012.4
20260901024502 68 148 1.0 5.0 0.00 0.00 0.00 56 1012.2
20260901023004 69 158 0.0 3.0 0.00 0.00 0.00 55 1012.2
20260901021505 71 162 0.0 3.0 0.00 0.00 0.00 53 1011.9
20260901020004 72 172 1.0 3.0 0.00 0.00 0.00 52 1011.8
20260901014506 73 160 1.0 3.0 0.00 0.00 0.00 49 1011.8
20260901013003 74 110 1.0 2.0 0.00 0.00 0.00 46 1011.9
20260901011502 75 21 0.0 3.0 0.00 0.00 0.00 45 1011.7
20260901010002 76 33 1.0 4.0 0.00 0.00 0.00 44 1011.8
20260901004502 76 122 1.0 3.0 0.00 0.00 0.00 42 1011.8
20260901003002 77 173 1.0 3.0 0.00 0.00 0.00 41 1011.9
20260901001503 77 102 1.0 4.0 0.00 0.00 0.00 40 1011.8
20260901000003 78 134 1.0 5.0 0.00 0.00 0.00 38 1012.0
20260831234503 78 154 1.0 4.0 0.00 0.00 0.00 38 1011.8
20260831233002 78 87 1.0 4.0 0.00 0.00 0.00 38 1012.2
20260831231502 78 172 1.0 6.0 0.00 0.00 0.00 38 1012.4
20260831230003 78 85 2.0 7.0 0.00 0.00 0.00 36 1012.5
20260831224504 78 201 1.0 5.0 0.00 0.00 0.00 38 1012.6
20260831223004 79 185 2.0 6.0 0.00 0.00 0.00 36 1012.7
20260831221504 79 183 2.0 5.0 0.00 0.00 0.00 36 1012.8
20260831220002 79 113 2.0 6.0 0.00 0.00 0.00 37 1012.7
20260831214502 78 179 2.0 5.0 0.00 0.00 0.00 38 1012.7
20260831213004 78 190 2.0 6.0 0.00 0.00 0.00 37 1012.8
20260831211503 78 192 1.0 5.0 0.00 0.00 0.00 39 1012.9
20260831210100 78 89 2.0 5.0 0.00 0.00 0.00 38 1012.9
20260831210002 78 94 2.0 5.0 0.00 0.00 0.00 39 1012.9
20260831204502 78 150 2.0 4.0 0.00 0.00 0.00 40 1013.1
20260831203002 78 192 2.0 4.0 0.00 0.00 0.00 41 1013.2
20260831201502 78 137 1.0 4.0 0.00 0.00 0.00 42 1013.1
20260831200007 77 185 2.0 5.0 0.00 0.00 0.00 43 1013.1
20260831194502 76 204 1.0 4.0 0.00 0.00 0.00 44 1013.3
20260831193004 75 204 1.0 7.0 0.00 0.00 0.00 45 1013.3
20260831191503 75 158 1.0 4.0 0.00 0.00 0.00 45 1013.3